1498744800.1,47806,18.13,72902.3,8.53,0.87,3.53,0,*44
1498744801.35,47807,18.06,72902.5,8.55,1.13,3.53,0,*7F
1498744802.58,47808,18.13,72914.5,8.55,1.75,3.67,0,*77
1498744803.84,47809,18.06,72938.0,8.59,1.63,3.11,0,*7C
1498744805.07,47810,18.13,72916.5,8.59,1.51,2.61,0,*73
1498744806.27,47811,18.06,72880.3,8.57,0.97,2.01,0,*41
1498744807.51,47812,18.13,72878.5,8.59,0.51,1.63,0,*41
1498744808.72,47813,18.13,72904.5,8.57,1.01,2.13,0,*7E
1498744809.94,47814,18.13,72912.3,8.57,0.41,1.63,0,*48
1498744811.13,47815,18.06,72886.5,8.57,-0.33,0.79,0,*5B
1498744812.32,47816,18.13,72908.0,8.57,-1.67,-0.57,0,*49
1498744813.52,47817,18.06,72898.5,8.57,-1.91,-0.81,0,*4A
1498744814.74,47818,18.13,72878.5,8.55,-2.79,-1.71,0,*7C
1498744815.99,47819,18.06,72860.5,8.53,-3.47,-2.71,0,*74
1498744817.22,47820,18.13,72868.5,8.51,-4.69,-3.39,0,*7A
1498744818.46,47821,18.13,72892.8,8.51,-6.27,-3.79,0,*77
1498744819.67,47822,18.06,72900.3,8.47,-7.11,-3.23,0,*78
1498744820.88,47823,18.06,72916.3,8.45,-7.91,-2.91,0,*7B
1498744822.07,47824,18.13,72924.3,8.39,-8.37,-3.07,0,*7A
1498744823.28,47825,18.06,72932.8,8.35,-7.35,-2.31,0,*7E
1498744824.5,47826,18.06,72948.0,8.35,-7.23,-2.59,0,*74
1498744825.73,47827,18.13,72946.5,8.33,-6.31,-1.87,0,*71
1498744826.98,47828,18.13,72954.5,8.29,-5.55,-1.35,0,*7D
1498744828.22,47829,18.13,72952.8,8.25,-5.15,-1.29,0,*79
1498744829.42,47830,18.13,72948.3,8.23,-3.07,0.63,0,*60
1498744830.68,47831,18.06,72948.0,8.21,-1.99,1.21,0,*51
1498744831.9,47832,18.13,72944.5,8.21,-2.35,0.17,0,*63
1498744833.15,47833,18.06,72940.5,8.17,-0.85,1.33,0,*69
1498744834.34,47834,18.06,72940.8,8.15,-0.29,1.51,0,*6E
1498744835.56,47835,18.13,72944.3,8.15,0.41,1.85,0,*45
1498744836.8,47836,18.06,72932.5,8.11,0.67,2.09,0,*41
1498744838.06,47837,18.13,72932.3,8.11,1.21,2.43,0,*7D
1498744839.28,47838,18.13,72936.5,8.11,1.47,2.35,0,*73
1498744840.52,47839,18.06,72936.8,8.11,1.21,1.83,0,*7C
1498744841.72,47840,18.13,72928.8,8.09,1.93,2.35,0,*7C
1498744842.94,47841,18.13,72916.3,8.09,2.21,2.55,0,*71
1498744844.16,47842,18.13,72910.8,8.07,2.89,2.99,0,*7E
1498744845.41,47843,18.06,72908.5,8.07,3.71,3.75,0,*7A
1498744846.62,47844,18.13,72908.0,8.09,3.63,3.41,0,*77
1498744847.84,47845,18.13,72900.5,8.11,3.97,3.59,0,*7D
1498744849.09,47846,18.13,72900.0,8.11,3.49,3.03,0,*72
1498744850.32,47847,18.06,72888.0,8.15,3.07,2.69,0,*70
1498744851.52,47848,18.13,72900.5,8.15,2.91,2.59,0,*72
1498744852.77,47849,18.13,72900.8,8.11,2.09,1.85,0,*74
1498744854.0,47850,18.06,72898.0,8.09,2.17,2.05,0,*71
1498744855.18,47851,18.13,72880.8,8.09,3.63,3.63,0,*73
1498744856.35,47852,18.13,72900.8,8.09,4.23,4.19,0,*79
1498744857.53,47853,18.13,72896.3,8.09,4.41,4.23,0,*75
1498744858.73,47854,18.13,72912.0,8.11,4.23,4.07,0,*79
1498744859.9,47855,18.06,72902.0,8.15,4.33,4.27,0,*7F
1498744861.13,47856,18.13,72910.3,8.15,4.71,4.63,0,*7A
1498744862.36,47857,18.13,72888.5,8.15,4.75,4.71,0,*7C
1498744863.57,47858,18.13,72890.0,8.17,4.53,4.37,0,*77
1498744864.83,47859,18.13,72896.8,8.17,4.79,4.67,0,*7B
1498744866.03,47860,18.13,72886.5,8.17,3.81,3.59,0,*7B
1498744867.27,47861,18.13,72878.5,8.19,3.67,3.45,0,*71
1498744868.5,47862,18.13,72884.5,8.17,2.65,2.43,0,*78
1498744869.73,47863,18.06,72892.3,8.17,2.65,2.51,0,*7A
1498744870.95,47864,18.13,72924.3,8.17,2.77,2.31,0,*78
1498744872.2,47865,18.13,72952.5,8.17,2.01,1.59,0,*75
1498744873.42,47866,18.13,72952.0,8.15,1.97,1.43,0,*73
1498744874.67,47867,18.06,72962.0,8.11,1.47,1.09,0,*75
1498744875.9,47868,18.13,72956.5,8.11,2.05,1.83,0,*7D
1498744877.12,47869,18.13,72948.5,8.15,2.47,2.21,0,*75
1498744878.34,47870,18.13,72958.5,8.15,2.47,1.89,0,*7C
1498744879.56,47871,18.13,72960.5,8.19,2.55,1.55,0,*73
1498744880.76,47872,18.13,72952.0,8.23,2.65,1.37,0,*7E
1498744882.01,47873,18.13,72950.5,8.25,2.47,0.91,0,*44
1498744883.21,47874,18.13,72952.0,8.27,2.25,0.43,0,*4A
1498744884.44,47875,18.13,72964.3,8.29,1.93,-0.15,0,*65
1498744885.62,47876,18.13,72928.0,8.27,0.05,-2.23,0,*51
1498744886.78,47877,18.13,72848.3,8.27,0.05,-2.43,0,*56
1498744887.96,47878,18.13,72866.0,8.27,-0.65,-3.87,0,*4B
1498744889.2,47879,18.13,72910.8,8.29,-0.89,-4.65,0,*4D
1498744890.38,47880,18.13,72878.3,8.27,-1.51,-5.55,0,*73
1498744891.63,47881,18.13,72854.0,8.25,-2.71,-6.81,0,*7B
1498744892.87,47882,18.13,72884.8,8.25,-3.79,-7.99,0,*79
1498744894.11,47883,18.13,72888.8,8.21,-4.13,-7.91,0,*7F
1498744895.31,47884,18.13,72876.5,8.23,-5.07,-8.17,0,*7F
1498744896.55,47885,18.13,72872.5,8.21,-6.89,-9.45,0,*7F
1498744897.79,47886,18.13,72886.3,8.19,-8.11,-9.57,0,*7B
1498744899.03,47887,18.13,72876.5,8.17,-6.27,-6.89,0,*73
1498744900.27,47888,18.13,72890.8,8.19,-7.27,-6.93,0,*78
1498744901.49,47889,18.13,72880.8,8.19,-8.07,-6.81,0,*77
1498744902.71,47890,18.13,72878.8,8.17,-8.41,-6.35,0,*7C
1498744903.96,47891,18.13,72864.5,8.17,-10.19,-7.27,0,*4B
1498744905.21,47892,18.13,72868.0,8.17,-10.41,-6.51,0,*45
1498744906.45,47893,18.06,72866.0,8.19,-10.41,-5.69,0,*42
1498744907.64,47894,18.13,72892.0,8.15,-9.75,-4.25,0,*7F
1498744908.85,47895,18.13,72894.3,8.11,-9.67,-3.35,0,*7F
1498744910.1,47896,18.13,72906.0,8.11,-9.23,-2.63,0,*7E
1498744911.27,47897,18.13,72908.8,8.15,-7.49,-0.81,0,*47
1498744912.49,47898,18.13,72924.8,8.15,-6.63,0.17,0,*63
1498744913.72,47899,18.13,72928.5,8.17,-6.01,0.71,0,*64
1498744914.96,47900,18.13,72936.8,8.19,-5.69,1.09,0,*58
1498744916.18,47901,18.13,72938.8,8.21,-5.43,1.13,0,*51
1498744917.38,47902,18.13,72930.8,8.23,-4.49,1.85,0,*54
1498744918.6,47903,18.13,72932.3,8.25,-3.55,2.31,0,*55
1498744919.84,47904,18.13,72928.0,8.29,-3.27,2.13,0,*5B
1498744921.04,47905,18.06,72924.5,8.31,-2.35,2.55,0,*53
1498744922.22,47906,18.13,72936.3,8.35,-0.19,4.27,0,*6B
1498744923.45,47907,18.06,72938.3,8.41,2.65,6.51,0,*7E
1498744924.68,47908,18.13,72938.5,8.51,4.07,7.23,0,*76
1498744925.94,47909,18.13,72942.3,8.59,4.93,7.61,0,*74
1498744927.17,47910,18.13,72950.3,8.71,5.63,7.73,0,*7B
1498744928.4,47911,18.06,72948.5,8.81,6.25,7.83,0,*7B
1498744929.58,47912,18.13,72950.8,8.95,6.25,7.33,0,*76
1498744930.76,47913,18.06,72948.0,9.03,6.25,6.75,0,*7A
1498744931.97,47914,18.13,72956.3,9.11,5.33,5.11,0,*7B
1498744933.15,47915,18.13,72960.5,9.17,5.11,4.37,0,*79
1498744934.33,47916,18.06,72964.3,9.25,6.03,4.81,0,*76
1498744935.55,47917,18.13,72976.3,9.35,5.27,3.63,0,*78
1498744936.77,47918,18.13,72982.8,9.39,5.33,3.45,0,*7A
1498744937.98,47919,18.06,72984.8,9.47,5.19,2.89,0,*7B
1498744939.19,47920,18.13,72992.5,9.57,4.49,1.59,0,*7A
1498744940.39,47921,18.13,72996.3,9.63,2.85,-0.53,0,*6C
1498744941.59,47922,18.13,72998.8,9.67,1.59,-2.19,0,*55
1498744942.81,47923,18.13,72996.3,9.71,0.83,-3.55,0,*6C
1498744944.06,47924,18.13,73000.8,9.73,0.33,-4.77,0,*65
1498744945.31,47925,18.13,73004.0,9.77,-0.27,-5.69,0,*46
1498744946.52,47926,18.13,73008.3,9.79,-0.93,-6.55,0,*48
1498744947.71,47927,18.13,73010.0,9.83,-0.81,-6.51,0,*4B
1498744948.9,47928,18.06,73000.0,9.83,-2.35,-8.21,0,*70
1498744950.11,47929,18.13,73002.0,9.83,-2.15,-7.95,0,*73
1498744951.34,47930,18.13,73010.0,9.85,-2.43,-8.03,0,*7E
1498744952.55,47931,18.13,73008.0,9.87,-4.81,-10.57,0,*4D
1498744953.78,47932,18.13,73004.5,9.85,-7.19,-12.93,0,*44
1498744955.02,47933,18.13,73004.8,9.81,-7.91,-13.11,0,*4A
1498744956.24,47934,18.13,73006.3,9.77,-8.71,-13.51,0,*41
1498744957.48,47935,18.13,73012.0,9.77,-8.51,-12.93,0,*4D
1498744958.71,47936,18.13,73014.3,9.71,-9.83,-13.83,0,*46
1498744959.97,47937,18.13,72992.3,9.65,-11.11,-14.47,0,*7F
1498744961.19,47938,18.13,72994.3,9.59,-9.79,-12.57,0,*4F
1498744962.39,47939,18.13,72990.8,9.55,-7.35,-9.31,0,*7E
1498744963.64,47940,18.13,72976.8,9.53,-8.11,-9.01,0,*7C
1498744964.84,47941,18.13,72956.5,9.49,-8.59,-8.59,0,*76
1498744966.09,47942,18.13,72938.8,9.45,-7.61,-6.55,0,*7F
1498744967.28,47943,18.13,72918.8,9.43,-6.55,-4.37,0,*78
1498744968.49,47944,18.13,72894.8,9.37,-5.65,-3.19,0,*77
1498744969.7,47945,18.13,72886.8,9.37,-4.33,-1.87,0,*71
1498744970.89,47946,18.13,72898.8,9.33,-2.95,-0.81,0,*4B
1498744972.12,47947,18.13,72904.8,9.27,-1.29,0.83,0,*64
1498744973.35,47948,18.13,72904.0,9.27,-0.53,1.55,0,*6D
1498744974.58,47949,18.13,72910.8,9.27,-0.29,1.85,0,*6C
1498744975.82,47950,18.13,72926.5,9.23,0.67,2.59,0,*45
1498744977.03,47951,18.13,72946.5,9.23,0.97,2.61,0,*40
1498744978.27,47952,18.13,72914.3,9.23,0.51,1.63,0,*48
1498744979.47,47953,18.13,72918.0,9.15,0.05,0.95,0,*45
1498744980.72,47954,18.13,72924.3,9.11,1.21,1.75,0,*7E
1498744981.92,47955,18.13,72924.3,9.09,1.93,2.27,0,*7B
1498744983.14,47956,18.06,72890.8,9.05,2.35,2.51,0,*7A
1498744984.4,47957,18.13,72882.5,9.01,2.51,2.59,0,*75
1498744985.63,47958,18.13,72890.8,8.99,2.43,2.59,0,*79
1498744986.87,47959,18.13,72852.3,8.97,2.59,2.69,0,*7E
1498744988.08,47960,18.13,72868.0,8.95,2.51,2.65,0,*72
1498744989.32,47961,18.06,72842.0,8.93,3.19,3.23,0,*7B
1498744990.53,47962,18.13,72844.5,8.91,3.79,3.93,0,*77
1498744991.76,47963,18.13,72852.0,8.91,4.63,4.75,0,*75
1498744992.94,47964,18.06,72860.3,8.91,4.15,4.45,0,*70
1498744994.14,47965,18.13,72870.5,8.91,3.55,3.41,0,*71
1498744995.34,47966,18.13,72856.8,8.89,4.33,4.45,0,*7F
1498744996.54,47967,18.13,72854.5,8.89,4.41,4.57,0,*78
1498744997.8,47968,18.13,72866.3,8.89,3.37,3.41,0,*71
1498744999.02,47969,18.13,72882.3,8.87,2.81,2.69,0,*79
1498745000.28,47970,18.13,72878.8,8.81,2.81,2.73,0,*7C
1498745001.45,47971,18.06,72874.0,8.79,3.63,3.63,0,*77
1498745002.69,47972,18.13,72868.5,8.79,3.41,3.33,0,*71
1498745003.9,47973,18.13,72852.8,8.79,2.35,2.17,0,*75
1498745005.1,47974,18.13,72870.5,8.75,3.29,3.25,0,*72
1498745006.33,47975,18.13,72874.0,8.75,3.89,3.79,0,*70
1498745007.53,47976,18.13,72870.3,8.75,3.89,3.85,0,*70
1498745008.71,47977,18.13,72864.0,8.73,4.53,4.41,0,*78
1498745009.94,47978,18.13,72842.5,8.71,3.89,3.67,0,*76
1498745011.15,47979,18.13,72896.3,8.73,3.11,2.61,0,*73
1498745012.36,47980,18.13,72916.3,8.69,3.89,3.49,0,*74
1498745013.61,47981,18.13,72894.5,8.67,3.37,2.59,0,*7E
1498745014.79,47982,18.13,72888.3,8.69,3.55,2.91,0,*73
1498745016.04,47983,18.13,72902.3,8.67,3.41,2.01,0,*70
1498745017.28,47984,18.13,72900.8,8.63,2.65,1.09,0,*7F
1498745018.51,47985,18.13,72926.5,8.63,3.25,1.21,0,*71
1498745019.74,47986,18.13,72904.0,8.59,3.41,1.01,0,*7B
1498745020.94,47987,18.13,72900.8,8.59,2.35,-0.53,0,*63
1498745022.17,47988,18.06,72892.5,8.57,2.13,-0.97,0,*6E
1498745023.4,47989,18.13,72874.5,8.55,1.89,-1.17,0,*54
1498745024.67,47990,18.13,72926.0,8.51,1.33,-1.87,0,*50
1498745025.9,47991,18.13,72908.3,8.47,0.97,-1.91,0,*6E
1498745027.11,47992,18.13,72896.5,8.45,1.63,-0.81,0,*65
1498745028.32,47993,18.13,72906.8,8.45,1.97,-0.45,0,*67
1498745029.53,47994,18.13,72912.8,8.39,2.17,-0.15,0,*65
1498745030.76,47995,18.13,72922.0,8.35,1.51,-0.85,0,*60
1498745031.96,47996,18.13,72910.5,8.33,1.75,-0.11,0,*6E
1498745033.2,47997,18.13,72904.3,8.33,1.43,0.13,0,*45
1498745034.4,47998,18.13,72878.3,8.31,0.87,-0.33,0,*5E
1498745035.64,47999,18.13,72902.5,8.25,0.55,-0.41,0,*50
1498745036.8,48000,18.13,72904.3,8.23,1.83,1.01,0,*72
1498745038.06,48001,18.13,72904.0,8.21,2.17,1.63,0,*7B
1498745039.3,48002,18.13,72896.8,8.21,1.93,1.51,0,*76
1498745040.53,48003,18.13,72908.0,8.17,1.59,1.05,0,*75
1498745041.72,48004,18.13,72908.0,8.15,2.85,2.27,0,*71
1498745042.91,48005,18.13,72916.3,8.15,3.63,3.11,0,*7D
1498745044.14,48006,18.13,72926.3,8.15,3.53,2.81,0,*75
1498745045.36,48007,18.13,72928.8,8.11,3.59,3.07,0,*75
1498745046.59,48008,18.13,72920.5,8.15,3.23,2.51,0,*71
1498745047.84,48009,18.13,72930.3,8.11,2.77,2.09,0,*79
1498745049.04,48010,18.13,72954.8,8.09,2.91,2.55,0,*79
1498745050.27,48011,18.13,72926.3,8.09,2.21,1.85,0,*7D
1498745051.51,48012,18.13,72912.0,8.07,1.43,0.95,0,*47
1498745052.74,48013,18.13,72864.8,8.03,0.67,0.51,0,*7D
1498745053.98,48014,18.13,72842.5,7.99,0.63,0.63,0,*73
1498745055.19,48015,18.13,72852.8,7.99,-0.03,0.13,0,*6E
1498745056.43,48016,18.13,72826.8,7.95,-0.57,-0.27,0,*7A
1498745057.66,48017,18.13,72856.0,7.95,-0.93,-0.19,0,*7E
1498745058.85,48018,18.13,72852.3,7.89,-1.17,0.05,0,*51
1498745060.07,48019,18.13,72868.0,7.85,-1.83,-0.33,0,*49
1498745061.3,48020,18.13,72884.0,7.83,-1.17,0.71,0,*63
1498745062.47,48021,18.13,72874.3,7.81,-0.37,1.41,0,*61
1498745063.65,48022,18.13,72902.8,7.81,-0.53,1.01,0,*64
1498745064.88,48023,18.13,72888.8,7.77,-0.53,0.63,0,*59
1498745066.09,48024,18.13,72858.5,7.75,0.21,1.09,0,*49
1498745067.28,48025,18.13,72904.3,7.75,0.13,1.01,0,*41
1498745068.49,48026,18.13,72904.3,7.73,0.47,0.97,0,*7B
1498745069.69,48027,18.13,72890.3,7.67,0.17,0.63,0,*71
1498745070.89,48028,18.13,72886.8,7.67,0.87,1.05,0,*46
1498745072.12,48029,18.13,72900.8,7.65,0.63,0.71,0,*7D
1498745073.32,48030,18.13,72912.8,7.63,0.97,1.13,0,*4D
1498745074.54,48031,18.13,72922.3,7.59,0.79,0.95,0,*7A
1498745075.76,48032,18.13,72924.5,7.59,1.43,1.71,0,*7A
1498745076.99,48033,18.13,72920.0,7.59,1.09,1.51,0,*77
1498745078.21,48034,18.13,72932.0,7.57,1.85,2.31,0,*7F
1498745079.46,48035,18.13,72926.8,7.57,2.09,2.47,0,*78
1498745080.72,48036,18.13,72938.0,7.57,2.51,2.77,0,*75
1498745081.95,48037,18.13,72946.0,7.55,2.05,2.17,0,*71
1498745083.2,48038,18.13,72924.0,7.53,1.47,1.43,0,*7F
1498745084.47,48039,18.13,72928.5,7.53,1.21,1.21,0,*7A
1498745085.69,48040,18.13,72902.5,7.49,0.79,1.01,0,*41
1498745086.95,48041,18.13,72916.3,7.47,0.91,1.37,0,*4D
1498745088.2,48042,18.13,72922.8,7.43,1.13,1.93,0,*7F
1498745089.43,48043,18.13,72916.5,7.41,1.21,2.05,0,*71
1498745090.64,48044,18.13,72890.8,7.41,2.47,3.25,0,*76
1498745091.83,48045,18.13,72894.3,7.41,2.25,2.91,0,*7D
1498745093.05,48046,18.13,72902.8,7.43,2.69,3.25,0,*7A
1498745094.25,48047,18.13,72912.5,7.41,2.77,3.25,0,*76
1498745095.43,48048,18.13,72924.8,7.41,2.91,3.25,0,*71
1498745096.68,48049,18.06,72926.0,7.43,2.69,2.89,0,*72
1498745097.87,48050,18.13,72946.3,7.41,2.89,2.91,0,*7F
1498745099.05,48051,18.13,72970.5,7.41,2.65,2.65,0,*77
1498745100.25,48052,18.13,72960.8,7.43,2.91,2.99,0,*7E
1498745101.42,48053,18.06,72942.3,7.41,2.35,2.35,0,*75
1498745102.64,48054,18.13,72920.8,7.41,2.05,1.93,0,*7E
1498745103.89,48055,18.13,72908.3,7.39,2.01,1.93,0,*74
1498745105.1,48056,18.13,72908.0,7.37,2.47,2.35,0,*74
1498745106.33,48057,18.13,72904.3,7.35,2.61,2.59,0,*79
1498745107.59,48058,18.06,72898.5,7.35,2.81,2.81,0,*7D
1498745108.81,48059,18.13,72886.3,7.33,2.59,2.55,0,*76
1498745110.02,48060,18.13,72886.5,7.33,2.65,2.77,0,*73
1498745111.26,48061,18.13,72894.8,7.33,3.41,3.41,0,*71
1498745112.52,48062,18.13,72888.5,7.35,3.45,3.45,0,*74
1498745113.74,48063,18.13,72896.5,7.33,2.89,2.69,0,*7D
1498745114.97,48064,18.13,72906.8,7.33,3.19,3.15,0,*78
1498745116.21,48065,18.13,72922.0,7.33,3.49,3.41,0,*7D
1498745117.44,48066,18.13,72912.5,7.31,3.25,3.15,0,*77
1498745118.65,48067,18.13,72898.5,7.29,2.91,2.89,0,*75
1498745119.87,48068,18.13,72886.5,7.31,2.91,2.77,0,*72
1498745121.08,48069,18.06,72874.0,7.29,3.03,2.91,0,*78
1498745122.26,48070,18.13,72878.0,7.29,3.59,3.55,0,*76
1498745123.45,48071,18.06,72868.5,7.31,3.63,3.59,0,*7B
1498745124.66,48072,18.13,72870.8,7.29,2.51,2.27,0,*79
1498745125.88,48073,18.13,72880.8,7.29,2.05,1.89,0,*7E
1498745127.11,48074,18.13,72898.5,7.27,2.51,2.35,0,*72
1498745128.31,48075,18.13,72872.0,7.25,2.95,2.89,0,*7E
1498745129.51,48076,18.13,72906.3,7.25,3.29,3.19,0,*73
1498745130.73,48077,18.13,72902.3,7.25,3.33,3.19,0,*79
1498745131.97,48078,18.13,72924.5,7.25,3.41,3.41,0,*7E
1498745133.2,48079,18.13,72932.0,7.21,3.49,3.41,0,*73
1498745134.38,48080,18.13,72942.0,7.21,3.59,3.59,0,*7D
1498745135.59,48081,18.13,72950.3,7.21,3.89,3.79,0,*73
1498745136.79,48082,18.13,72948.5,7.21,3.29,3.19,0,*7C
1498745137.96,48083,18.13,72952.8,7.21,3.63,3.55,0,*7B
1498745139.17,48084,18.13,72946.0,7.21,3.85,3.75,0,*76
1498745140.4,48085,18.13,72936.5,7.21,3.37,3.37,0,*78
1498745141.58,48086,18.13,72932.5,7.21,3.63,3.63,0,*7B
1498745142.83,48087,18.13,72936.3,7.19,3.71,3.75,0,*75
1498745144.01,48088,18.13,72936.8,7.21,3.85,3.85,0,*75
1498745145.21,48089,18.13,72944.3,7.21,3.63,3.53,0,*77
1498745146.46,48090,18.13,72932.0,7.19,3.33,3.33,0,*77
1498745147.63,48091,18.06,72936.3,7.21,3.63,3.55,0,*78
1498745148.84,48092,18.13,72940.5,7.21,3.75,3.63,0,*79
1498745150.07,48093,18.13,72956.8,7.19,3.11,2.99,0,*75
1498745151.3,48094,18.13,72958.8,7.19,3.15,2.99,0,*76
1498745152.51,48095,18.13,72956.8,7.17,3.71,3.59,0,*76
1498745153.73,48096,18.13,72942.8,7.17,2.73,2.51,0,*7F
1498745154.96,48097,18.06,72928.3,7.15,2.47,2.27,0,*7A
1498745156.2,48098,18.13,72948.0,7.15,3.11,2.99,0,*72
1498745157.4,48099,18.13,72954.0,7.13,3.89,3.71,0,*73
1498745158.63,48100,18.06,72952.5,7.13,3.23,3.19,0,*7C
1498745159.88,48101,18.13,72954.0,7.11,2.81,2.69,0,*70
1498745161.12,48102,18.13,72958.3,7.11,3.19,3.03,0,*7E
1498745162.35,48103,18.13,72972.3,7.11,2.95,2.85,0,*75
1498745163.6,48104,18.13,72938.8,7.11,3.03,2.85,0,*7C
1498745164.83,48105,18.13,72904.5,7.07,3.11,2.99,0,*74
1498745166.03,48106,18.13,72914.5,7.07,3.85,3.81,0,*72
1498745167.24,48107,18.13,72930.3,7.07,3.93,3.81,0,*74
1498745168.48,48108,18.13,72948.0,7.07,4.31,4.33,0,*7A
1498745169.68,48109,18.13,72956.0,7.07,4.45,4.45,0,*79
1498745170.91,48110,18.13,72946.0,7.09,4.31,4.31,0,*7F
1498745172.11,48111,18.06,72938.3,7.09,4.05,4.19,0,*73
1498745173.29,48112,18.13,72944.0,7.09,4.45,4.41,0,*79
1498745174.49,48113,18.13,72946.5,7.09,4.79,4.89,0,*73
1498745175.72,48114,18.13,72946.5,7.11,5.05,5.15,0,*73
1498745176.93,48115,18.13,72956.5,7.13,5.01,5.11,0,*70
1498745178.15,48116,18.13,72926.3,7.13,4.01,4.01,0,*72
1498745179.36,48117,18.06,72930.0,7.13,3.23,3.29,0,*79
1498745180.62,48118,18.13,72944.8,7.15,3.11,3.45,0,*7B
1498745181.82,48119,18.13,72952.3,7.15,3.55,3.93,0,*71
1498745183.05,48120,18.13,72948.5,7.15,3.45,3.81,0,*79
1498745184.32,48121,18.06,72944.8,7.15,3.79,4.05,0,*7C
1498745185.52,48122,18.13,72950.0,7.13,3.41,3.55,0,*70
1498745186.74,48123,18.13,72958.5,7.13,3.11,3.19,0,*7C
1498745187.94,48124,18.13,72954.3,7.11,3.29,3.29,0,*71
1498745189.19,48125,18.13,72956.8,7.11,3.53,3.37,0,*72
1498745190.39,48126,18.13,72944.8,7.13,3.67,3.55,0,*70
1498745191.59,48127,18.13,72944.0,7.09,3.59,3.37,0,*73
1498745192.82,48128,18.06,72936.0,7.11,3.67,3.55,0,*7C
1498745194.04,48129,18.13,72934.8,7.11,3.79,3.63,0,*77
1498745195.22,48130,18.13,72916.0,7.09,3.81,3.85,0,*79
1498745196.39,48131,18.06,72910.5,7.09,3.85,3.81,0,*78
1498745197.59,48132,18.13,72900.8,7.09,3.59,3.53,0,*75
1498745198.82,48133,18.06,72890.3,7.07,3.81,3.71,0,*7F
1498745200.03,48134,18.13,72886.8,7.09,4.05,3.93,0,*71
1498745201.21,48135,18.13,72892.3,7.09,4.07,4.07,0,*78
1498745202.38,48136,18.13,72896.0,7.09,4.45,4.53,0,*7C
1498745203.62,48137,18.06,72904.8,7.09,4.93,4.93,0,*7A
1498745204.82,48138,18.13,72916.5,7.11,5.07,5.07,0,*7C
1498745206.02,48139,18.06,72922.5,7.11,5.15,5.19,0,*71
1498745207.23,48140,18.13,72926.8,7.15,5.23,5.29,0,*7D
1498745208.44,48141,18.06,72922.0,7.17,5.11,5.01,0,*75
1498745209.67,48142,18.13,72920.0,7.17,4.67,4.75,0,*74
1498745210.85,48143,18.06,72906.3,7.17,4.89,4.85,0,*7A
1498745212.09,48144,18.06,72934.0,7.17,4.31,4.31,0,*71
1498745213.29,48145,18.06,72944.3,7.19,5.11,5.11,0,*7E
1498745214.53,48146,18.13,72940.0,7.21,5.05,5.05,0,*76
1498745215.75,48147,18.06,72928.5,7.27,4.01,4.23,0,*71
1498745216.98,48148,18.06,72922.5,7.27,3.33,3.81,0,*77
1498745218.21,48149,18.06,72916.5,7.25,3.07,3.67,0,*7B
1498745219.43,48150,18.06,72910.8,7.27,2.73,3.59,0,*7E
1498745220.63,48151,18.06,72906.3,7.25,2.59,3.59,0,*75
1498745221.81,48152,18.06,72890.5,7.29,2.65,3.85,0,*74
1498745223.03,48153,18.06,72904.8,7.29,3.15,4.41,0,*7C
1498745224.24,48154,18.13,72906.0,7.29,3.33,4.41,0,*7F
1498745225.45,48155,18.06,72910.0,7.31,3.49,4.27,0,*7A
1498745226.69,48156,18.13,72918.5,7.31,4.19,4.75,0,*7C
1498745227.92,48157,18.06,72920.8,7.33,3.79,4.01,0,*7D
1498745229.1,48158,18.13,72930.3,7.33,4.23,4.33,0,*7B
1498745230.35,48159,18.06,72940.0,7.35,3.79,4.01,0,*75
1498745231.61,48160,18.06,72950.3,7.35,3.11,3.67,0,*76
1498745232.87,48161,18.06,72948.8,7.39,2.17,3.33,0,*7D
1498745234.1,48162,18.06,72950.3,7.39,1.93,3.81,0,*78
1498745235.31,48163,18.06,72952.0,7.39,1.79,4.15,0,*77
1498745236.53,48164,18.06,72952.8,7.43,2.47,4.89,0,*76
1498745237.78,48165,18.06,72950.5,7.43,2.77,4.79,0,*7B
1498745239.04,48166,18.06,72942.0,7.43,3.19,4.71,0,*79
1498745240.27,48167,18.06,72928.0,7.49,3.63,4.71,0,*7F
1498745241.5,48168,18.06,72924.0,7.49,4.01,4.81,0,*7C
1498745242.7,48169,18.06,72918.5,7.49,4.27,4.81,0,*79
1498745243.91,48170,18.13,72918.0,7.51,4.19,4.31,0,*7E
1498745245.09,48171,18.06,72906.3,7.51,4.07,3.81,0,*7C
1498745246.27,48172,18.06,72880.3,7.51,3.59,3.25,0,*7D
1498745247.44,48173,18.13,72888.5,7.51,4.49,4.07,0,*7D
1498745248.65,48174,18.06,72900.8,7.51,4.97,4.49,0,*73
1498745249.88,48175,18.06,72902.0,7.53,5.15,4.93,0,*7C
1498745251.06,48176,18.06,72910.0,7.55,4.81,4.81,0,*76
1498745252.31,48177,18.06,72920.5,7.57,4.75,4.75,0,*75
1498745253.55,48178,18.06,72920.0,7.57,5.05,5.07,0,*78
1498745254.81,48179,18.06,72920.8,7.57,4.97,5.05,0,*71
1498745256.01,48180,18.06,72922.0,7.57,5.19,5.37,0,*71
1498745257.23,48181,18.06,72916.5,7.57,5.27,5.37,0,*7D
1498745258.42,48182,18.06,72918.5,7.57,5.29,5.41,0,*71
1498745259.61,48183,18.06,72922.5,7.59,5.99,5.99,0,*70
1498745260.81,48184,18.06,72926.8,7.63,6.13,6.07,0,*7B
1498745262.01,48185,18.06,72924.0,7.63,6.29,6.39,0,*7E
1498745263.19,48186,18.06,72920.5,7.67,6.21,6.25,0,*7C
1498745264.4,48187,18.06,72922.5,7.71,6.25,6.35,0,*7F
1498745265.61,48188,18.06,72916.8,7.71,6.03,6.13,0,*70
1498745266.83,48189,18.06,72918.8,7.75,5.55,5.55,0,*74
1498745268.0,48190,18.06,72914.0,7.75,5.23,5.15,0,*79
1498745269.26,48191,18.06,72914.0,7.73,4.63,4.75,0,*7C
1498745270.46,48192,18.06,72912.8,7.73,5.23,5.33,0,*79
1498745271.63,48193,18.06,72914.3,7.75,5.23,5.37,0,*7A
1498745272.82,48194,18.06,72906.8,7.75,5.27,5.45,0,*7C
1498745273.99,48195,18.06,72908.8,7.75,5.49,5.59,0,*78
1498745275.22,48196,18.06,72910.0,7.75,4.93,5.05,0,*74
1498745276.42,48197,18.06,72908.0,7.75,5.15,5.27,0,*7A
1498745277.62,48198,18.06,72906.0,7.75,5.49,5.55,0,*79
1498745278.83,48199,18.06,72904.8,7.75,5.73,5.73,0,*75
1498745280.06,48200,18.06,72916.8,7.75,5.81,5.81,0,*76
1498745281.26,48201,18.06,72914.5,7.79,5.59,5.51,0,*73
1498745282.43,48202,18.06,72924.3,7.79,5.49,5.29,0,*7E
1498745283.62,48203,18.06,72914.8,7.79,5.27,5.07,0,*7B
1498745284.83,48204,18.06,72924.3,7.79,5.51,5.07,0,*7D
1498745286.03,48205,18.06,72912.0,7.79,4.79,4.33,0,*71
1498745287.25,48206,18.13,72914.0,7.79,5.51,5.05,0,*7D
1498745288.44,48207,18.06,72906.3,7.81,5.71,5.19,0,*74
1498745289.65,48208,18.06,72914.3,7.81,5.89,5.33,0,*74
1498745290.88,48209,18.06,72914.8,7.83,5.89,5.41,0,*72
1498745292.08,48210,18.06,72922.0,7.87,5.45,4.89,0,*7B
1498745293.32,48211,18.06,72934.5,7.87,5.67,5.05,0,*7F
1498745294.55,48212,18.06,72934.8,7.87,5.15,4.31,0,*7F
1498745295.76,48213,18.06,72936.0,7.87,4.89,4.07,0,*7F
1498745297.02,48214,18.06,72944.0,7.87,4.93,3.97,0,*7D
1498745298.19,48215,18.06,72942.5,7.93,4.49,3.55,0,*70
1498745299.4,48216,18.06,72942.5,7.93,2.95,2.09,0,*7C
1498745300.63,48217,18.06,72934.5,7.89,2.59,1.09,0,*75
1498745301.86,48218,18.06,72926.3,7.89,1.85,0.17,0,*46
1498745303.09,48219,18.06,72932.5,7.87,0.95,-0.77,0,*52
1498745304.31,48220,18.06,72940.5,7.87,0.59,-0.53,0,*5E
1498745305.53,48221,18.06,72924.5,7.87,-1.75,-1.59,0,*76
1498745306.74,48222,18.06,72924.3,7.87,-2.39,-1.29,0,*79
1498745307.98,48223,18.06,72926.3,7.87,-2.51,-0.61,0,*4B
1498745309.21,48224,18.06,72930.0,7.87,-1.25,0.95,0,*6A
1498745310.44,48225,18.06,72922.8,7.89,-1.47,1.09,0,*55
1498745311.68,48226,18.06,72902.8,7.89,-1.43,0.91,0,*62
1498745312.9,48227,18.06,72902.3,7.89,-1.33,0.91,0,*64
1498745314.13,48228,18.06,72890.3,7.89,-1.35,0.51,0,*61
1498745315.3,48229,18.06,72876.5,7.89,-0.61,1.01,0,*64
1498745316.48,48230,18.06,72872.5,7.89,-0.49,1.01,0,*66
1498745317.69,48231,18.06,72872.5,7.89,0.17,1.59,0,*4C
1498745318.92,48232,18.06,72872.8,7.89,0.41,1.85,0,*4D
1498745320.16,48233,18.06,72878.8,7.87,0.59,1.97,0,*48
1498745321.41,48234,18.06,72890.5,7.87,0.25,1.67,0,*4B
1498745322.66,48235,18.06,72884.8,7.87,0.41,2.05,0,*4F
1498745323.9,48236,18.06,72894.3,7.87,0.41,1.71,0,*4C
1498745325.1,48237,18.06,72914.3,7.85,-0.53,0.63,0,*53
1498745326.31,48238,18.06,72910.8,7.83,0.17,1.05,0,*46